Tours, France

8:59 AM CET on February 08, 2016 (GMT +0100)
Val de Loire Air Base

Weather History for LFOT - April, 2014

Change the Weather History Date:

Saturday, April 5, 2014

  Actual Average Record
Temperature  
Mean Temperature 52 °F -  
Max Temperature 63 °F 59 °F 69 °F (1999)
Min Temperature 41 °F 42 °F 32 °F (1997)
Degree Days  
Heating Degree Days 13    
Growing Degree Days 2 (Base 50)    
Moisture  
Dew Point 47 °F    
Average Humidity 78    
Maximum Humidity 100    
Minimum Humidity 45    
Precipitation  
Precipitation 0.01 in - - ()
Sea Level Pressure  
Sea Level Pressure 30.04 in    
Wind  
Wind Speed 4 mph ()    
Max Wind Speed 10 mph    
Max Gust Speed -    
Visibility 7.5 miles    
Events Fog , Rain    
Averages and records for this station are not official NWS values.
T = Trace of Precipitation, MM = Missing Value Source: Averaged Metar Reports

Daily Weather History Graph

Daily Weather History Graph

Search for Another Location

Airport or City:

Trip Planner

Search our weather history database for the weather conditions in past years. The results will help you decide how hot, cold, wet, or windy it might be!

Date:

Astronomy

Apr. 05, 2014 Rise Set
Actual Time 7:28 AM CEST 8:32 PM CEST
Civil Twilight 6:57 AM CEST 9:03 PM CEST
Nautical Twilight 6:19 AM CEST 9:41 PM CEST
Astronomical Twilight 5:39 AM CEST 10:21 PM CEST
Moon 11:08 AM CEST (4/5) 1:44 AM CEST (4/5)
Length of Visible Light 14h 06m
Length of Day
13h 03m
Waxing Crescent, 32% of the Moon is Illuminated
Apr 5
Waxing Crescent
Apr 7
First Quarter
Apr 15
Full
Apr 22
Last Quarter
Apr 29
New

Hourly Weather History & Observations

Time (CEST) Temp. Windchill Dew Point Humidity Pressure Visibility Wind Dir Wind Speed Gust Speed Precip Events Conditions
12:00 AM 50 °F - 46 °F 83% 29.97 in 19 mi SE 3.5 mph - -   Mostly Cloudy
12:00 AM 50.0 °F - 46.4 °F 87% 29.95 in 6.2 mi SE 3.5 mph - N/A   Mostly Cloudy
12:30 AM 51.8 °F - 46.4 °F 82% 29.95 in 6.2 mi South 3.5 mph - N/A   Mostly Cloudy
1:00 AM 52 °F - 47 °F 76% 29.98 in 9 mi WSW 5.8 mph - -   Mostly Cloudy
1:00 AM 51.8 °F - 48.2 °F 88% 29.98 in 6.2 mi SW 5.8 mph - N/A   Mostly Cloudy
1:30 AM 50.0 °F - 46.4 °F 87% 29.98 in 6.2 mi West 3.5 mph - N/A   Mostly Cloudy
2:00 AM 49 °F - 45 °F 82% 30.00 in 9 mi West 3.5 mph - -   Mostly Cloudy
2:00 AM 50.0 °F - 46.4 °F 87% 29.98 in - Variable 3.5 mph - N/A   Clear
2:30 AM 48.2 °F - 44.6 °F 87% 29.98 in 6.2 mi Variable 2.3 mph - N/A   Mostly Cloudy
3:00 AM 48 °F - 45 °F 84% 30.01 in 31 mi West 4.6 mph - -   Clear
3:00 AM 48.2 °F - 44.6 °F 87% 29.98 in 6.2 mi West 4.6 mph - N/A   Unknown
3:30 AM 46.4 °F - 44.6 °F 93% 29.98 in 6.2 mi Variable 2.3 mph - N/A   Unknown
4:00 AM 47 °F - 44 °F 87% 30.01 in 28 mi WNW 3.5 mph - -   Clear
4:00 AM 46.4 °F 45.2 °F 44.6 °F 93% 29.98 in 6.2 mi WNW 3.5 mph - N/A   Mostly Cloudy
4:30 AM 46.4 °F 45.2 °F 44.6 °F 93% 30.01 in 6.2 mi West 3.5 mph - N/A   Mostly Cloudy
5:00 AM 47 °F - 44 °F 85% 30.01 in 19 mi West 3.5 mph - -   Partly Cloudy
5:00 AM 46.4 °F 45.2 °F 44.6 °F 93% 30.01 in 6.2 mi Variable 3.5 mph - N/A   Mostly Cloudy
5:30 AM 44.6 °F 43.1 °F 42.8 °F 93% 30.01 in 6.2 mi West 3.5 mph - N/A   Partly Cloudy
6:00 AM 44 °F - 42 °F 89% 30.01 in 9 mi WSW 2.3 mph - -  
6:00 AM 44.6 °F - 42.8 °F 93% 30.01 in - WSW 2.3 mph - N/A   Clear
6:30 AM 42.8 °F 41.1 °F 41.0 °F 93% 30.01 in 5.0 mi WSW 3.5 mph - N/A   Unknown
7:00 AM 43 °F - 42 °F 93% 30.03 in 4 mi WSW 2.3 mph - - Fog Patches of Fog
7:00 AM 42.8 °F - 41.0 °F 93% 30.01 in 3.7 mi WSW 2.3 mph - N/A Fog Shallow Fog
7:30 AM 41.0 °F 39.0 °F 41.0 °F 100% 30.01 in 3.7 mi WSW 3.5 mph - N/A Fog Fog
8:00 AM 42 °F - 41 °F 94% 30.05 in 4 mi SW 1.2 mph - - Fog Patches of Fog
8:00 AM 41.0 °F - 41.0 °F 100% 30.04 in 3.7 mi Variable 2.3 mph - N/A Fog Shallow Fog
8:30 AM 44.6 °F - 44.6 °F 100% 30.04 in 3.7 mi Calm Calm - N/A   Partly Cloudy
9:00 AM 46 °F - 46 °F 98% 30.06 in 4 mi WSW 2.3 mph - -   Clear
9:00 AM 46.4 °F - 46.4 °F 100% 30.04 in 4.3 mi WSW 2.3 mph - N/A   Mostly Cloudy
9:30 AM 48.2 °F - 46.4 °F 93% 30.04 in 6.2 mi Variable 2.3 mph - N/A   Overcast
10:00 AM 50 °F - 47 °F 86% 30.07 in 11 mi WSW 1.2 mph - -   Clear
10:00 AM 50.0 °F - 46.4 °F 87% 30.06 in 6.2 mi Variable 1.2 mph - N/A   Mostly Cloudy
10:30 AM 51.8 °F - 46.4 °F 82% 30.06 in 6.2 mi South 4.6 mph - N/A   Partly Cloudy
11:00 AM 55 °F - 47 °F 66% 30.08 in 11 mi South 4.6 mph - -   Clear
11:00 AM 55.4 °F - 46.4 °F 72% 30.06 in 6.2 mi South 4.6 mph - N/A   Partly Cloudy
11:30 AM 57.2 °F - 46.4 °F 67% 30.06 in 6.2 mi South 6.9 mph - N/A   Partly Cloudy
12:00 PM 57 °F - 43 °F 50% 30.08 in 37 mi SSW 6.9 mph - -   Clear
12:00 PM 57.2 °F - 42.8 °F 59% 30.06 in 6.2 mi SSW 6.9 mph - N/A   Partly Cloudy
12:30 PM 59.0 °F - 46.4 °F 63% 30.06 in 6.2 mi SSW 8.1 mph - N/A   Scattered Clouds
1:00 PM 59 °F - 46 °F 51% 30.09 in 34 mi SW 8.1 mph - -   Clear
1:00 PM 59.0 °F - 46.4 °F 63% 30.06 in 6.2 mi SW 8.1 mph - N/A   Mostly Cloudy
1:30 PM 59.0 °F - 44.6 °F 59% 30.06 in 6.2 mi SSW 9.2 mph - N/A   Mostly Cloudy
2:00 PM 60 °F - 44 °F 45% 30.08 in 37 mi WSW 10.4 mph - -   Clear
2:00 PM 60.8 °F - 44.6 °F 55% 30.06 in 6.2 mi WSW 10.4 mph - N/A   Overcast
2:30 PM 60.8 °F - 46.4 °F 59% 30.06 in 6.2 mi SW 8.1 mph - N/A   Overcast
3:00 PM 61 °F - 48 °F 52% 30.06 in 37 mi SW 8.1 mph - -   Clear
3:00 PM 60.8 °F - 48.2 °F 63% 30.06 in 6.2 mi SW 8.1 mph - N/A   Overcast
3:30 PM 62.6 °F - 50.0 °F 63% 30.06 in 6.2 mi WSW 8.1 mph - N/A   Mostly Cloudy
4:00 PM 61 °F - 49 °F 54% 30.06 in 37 mi WSW 9.2 mph - -   Clear
4:00 PM 60.8 °F - 48.2 °F 63% 30.06 in 6.2 mi WSW 9.2 mph - N/A   Overcast
4:30 PM 60.8 °F - 50.0 °F 68% 30.06 in 6.2 mi WSW 9.2 mph - N/A   Overcast
5:00 PM 61 °F - 50 °F 59% 30.07 in 37 mi SW 10.4 mph - -   Clear
5:00 PM 60.8 °F - 50.0 °F 68% 30.06 in 6.2 mi SW 10.4 mph - N/A   Mostly Cloudy
5:30 PM 60.8 °F - 50.0 °F 68% 30.06 in 6.2 mi WSW 10.4 mph - N/A   Overcast
6:00 PM 60 °F - 50 °F 60% 30.07 in 34 mi WSW 8.1 mph - -   Clear
6:00 PM 60.8 °F - 50.0 °F 68% 30.06 in 6.2 mi WSW 8.1 mph - N/A   Overcast
6:30 PM 60.8 °F - 50.0 °F 68% 30.06 in 6.2 mi SW 8.1 mph - N/A   Overcast
7:00 PM 60 °F - 51 °F 63% 30.07 in 37 mi SW 6.9 mph - -   Clear
7:00 PM 59.0 °F - 50.0 °F 72% 30.06 in 6.2 mi SW 6.9 mph - N/A   Overcast
7:30 PM 59.0 °F - 51.8 °F 77% 30.06 in 6.2 mi SSW 5.8 mph - N/A   Mostly Cloudy
8:00 PM 59 °F - 51 °F 67% 30.08 in 19 mi SW 8.1 mph - -   Mostly Cloudy
8:00 PM 59.0 °F - 51.8 °F 77% 30.06 in 6.2 mi SW 8.1 mph - N/A   Mostly Cloudy
8:30 PM 57.2 °F - 51.8 °F 82% 30.06 in 6.2 mi SW 4.6 mph - N/A   Mostly Cloudy
9:00 PM 57 °F - 53 °F 80% 30.10 in 19 mi SSW 3.5 mph - - Rain Light Rain
9:00 PM 57.2 °F - 51.8 °F 82% 30.09 in 6.2 mi Variable 3.5 mph - N/A   Mostly Cloudy
9:30 PM 57.2 °F - 51.8 °F 82% 30.09 in 6.2 mi SSW 5.8 mph - N/A   Mostly Cloudy
10:00 PM 57 °F - 52 °F 79% 30.11 in 19 mi SSW 4.6 mph - -   Mostly Cloudy
10:00 PM 57.2 °F - 51.8 °F 82% 30.09 in 6.2 mi SSW 5.8 mph - N/A   Mostly Cloudy
10:30 PM 57.2 °F - 53.6 °F 88% 30.09 in 6.2 mi SSW 4.6 mph - N/A   Mostly Cloudy
11:00 PM 57 °F - 53 °F 80% 30.11 in 19 mi SSW 4.6 mph - -   Partly Cloudy
11:00 PM 57.2 °F - 51.8 °F 82% 30.09 in 6.2 mi SSW 4.6 mph - N/A   Mostly Cloudy
11:30 PM 57.2 °F - 53.6 °F 88% 30.09 in 6.2 mi SSW 5.8 mph - N/A   Mostly Cloudy